Terminal Aerodrome Forecast
Issued by NWS

Home | Current Version | Previous Version | Text Only | Print | Product List | Glossary On
Versions: 1 2 3 4 5 6 7 8 9 10 11 12 13 14 15 16 17 18 19 20 21 22
000
FTUS43 KLSX 180300 AAB
TAFUIN
TAF AMD
KUIN 180314Z 1803/1824 VRB03KT 5SM BR SCT012 BKN030
      TEMPO 1803/1806 1SM BR SCT030
     FM180600 VRB03KT 2SM BR OVC008
     FM181600 19005KT 6SM BR BKN015
     FM182200 20006KT P6SM SCT030=

USA.gov is the U.S. government's official web portal to all federal, state and local government web resources and services.